Regional Weather Roundup
Issued by NWS

Home | Current Version | Previous Version | Graphics & Text | Print | Product List | Glossary On
Versions: 1 2 3 4 5 6 7 8 9 10 11 12 13 14 15 16 17 18 19 20 21 22 23 24 25 26 27 28 29 30 31 32 33 34 35 36 37 38 39 40 41 42 43 44 45 46 47 48 49 50
000
ASUS43 KBIS 252001
RWRND

NORTH DAKOTA REGIONAL WEATHER ROUNDUP
NATIONAL WEATHER SERVICE BISMARCK ND
200 PM CST SUN JAN 25 2015

NOTE: "FAIR" INDICATES FEW OR NO CLOUDS BELOW 12,000 FEET WITH NO
SIGNIFICANT WEATHER AND/OR OBSTRUCTIONS TO VISIBILITY.


NDZ001>003-009>011-017-252100-
NORTHWEST NORTH DAKOTA

CITY           SKY/WX    TMP DP  RH WIND       PRES   REMARKS
WILLISTON      MOSUNNY   41  30  65 S9        29.88F
MINOT          CLOUDY    31  28  89 SE7       29.90F FOG
MINOT AFB      CLOUDY    29  29 100 S8        29.90F
$$

NDZ018>021-031>035-040>046-252100-
SOUTHWEST NORTH DAKOTA

CITY           SKY/WX    TMP DP  RH WIND       PRES   REMARKS
BISMARCK       CLOUDY    36  31  82 W7        29.98F
DICKINSON      CLOUDY    41  29  62 SW5       29.90F
GARRISON         N/A     34  31  88 W8        29.92F
HETTINGER ARPT CLOUDY    42  28  57 W5        29.94F
$$

NDZ004>008-012>016-024-026-027-054-252100-
NORTHEAST NORTH DAKOTA

CITY           SKY/WX    TMP DP  RH WIND       PRES   REMARKS
GRAND FORKS    PTSUNNY   24  13  62 SE5       30.02F WCI  18
GRND FRKS AFB  CLOUDY    24  14  65 S3        30.01F
DEVILS LAKE    CLOUDY    21  18  86 SW10      29.95F WCI  10
$$

NDZ022-023-025-028>030-036>039-047>053-252100-
SOUTHEAST NORTH DAKOTA

CITY           SKY/WX    TMP DP  RH WIND       PRES   REMARKS
FARGO          CLOUDY    26  16  65 CALM      30.03F
JAMESTOWN      PTSUNNY   25  21  85 S6        29.97F WCI  18
$$



USA.gov is the U.S. government's official web portal to all federal, state and local government web resources and services.